Location: Ferris
(32.5340°N, 96.6656°W)
Time: 10:31:27
(UTC+00:00)

COSMO-SKYMED 1 - Pass Details

Date: 11 February 2026
Orbit: 577 x 578 km, 97.9° (Epoch: 8 March)

Event Time Altitude Azimuth Distance (km) Brightness Sun altitude
Rises 12:29:30 0° 180° (S) 2,781 6.0 -9.8°
Reaches altitude 10° 12:31:43 10° 187° (S) 1,886 5.1 -9.3°
Maximum altitude 12:35:38 45° 260° (W) 793 2.7 -8.5°
Drops below altitude 10° 12:39:35 10° 334° (NNW) 1,897 4.7 -7.7°
Sets 12:41:49 0° 341° (NNW) 2,800 5.6 -7.2°
